Weather History for Sallisaw, OK

Change the Weather History Date:

Monday, May 20, 2013

  Actual Average Record
Temperature  
Mean Temperature 74 °F -  
Max Temperature 84 °F 81 °F 92 °F (1956)
Min Temperature 64 °F 58 °F 42 °F (1968)
Cooling Degree Days 9    
Growing Degree Days 24 (Base 50)    
Moisture  
Dew Point 65 °F    
Average Humidity 70    
Maximum Humidity 94    
Minimum Humidity 57    
Precipitation  
Precipitation 0.51 in - - ()
Sea Level Pressure  
Sea Level Pressure 29.77 in    
Wind  
Wind Speed 9 mph (South)    
Max Wind Speed 30 mph    
Max Gust Speed 52 mph    
Visibility 10 miles    
Events Rain , Thunderstorm    
Averages and records for this station are not official NWS values.
T = Trace of Precipitation, MM = Missing Value Source: NWS Daily Summary

Daily Weather History Graph

Daily Weather History Graph

Search for Another Location

Airport:

Trip Planner

Search our weather history database for the weather conditions in past years. The results will help you decide how hot, cold, wet, or windy it might be!

Date:

Astronomy

May. 20, 2013 Rise Set
Actual Time 6:10 AM CDT 8:20 PM CDT
Civil Twilight 5:42 AM CDT 8:49 PM CDT
Nautical Twilight 5:07 AM CDT 9:24 PM CDT
Astronomical Twilight 4:29 AM CDT 10:02 PM CDT
Moon 3:38 PM CDT (5/20) 2:55 AM CDT (5/20)
Length of Visible Light 15h 07m
Length of Day
14h 10m
Waxing Gibbous, 75% of the Moon is Illuminated
May 20
Waxing Gibbous
May 24
Full
May 31
Last Quarter
Jun 8
New
Jun 16
First Quarter

Hourly Weather History & Observations

Time (CDT) Temp. Heat Index Dew Point Humidity Pressure Visibility Wind Dir Wind Speed Gust Speed Precip Events Conditions
12:15 AM 80.6 °F 82.3 °F 64.4 °F 58% 29.74 in 10.0 mi SSE 8.1 mph - N/A   Clear
12:35 AM 80.6 °F 82.3 °F 64.4 °F 58% 29.75 in 10.0 mi South 8.1 mph - N/A   Clear
12:55 AM 78.8 °F - 64.4 °F 61% 29.75 in 10.0 mi South 6.9 mph - N/A   Clear
1:15 AM 78.8 °F - 64.4 °F 61% 29.75 in 10.0 mi South 6.9 mph - N/A   Clear
1:35 AM 78.8 °F - 62.6 °F 57% 29.75 in 10.0 mi South 5.8 mph - N/A   Clear
1:55 AM 78.8 °F - 62.6 °F 57% 29.75 in 10.0 mi South 4.6 mph - N/A   Clear
2:15 AM 77.0 °F - 64.4 °F 65% 29.75 in 10.0 mi SSW 9.2 mph - N/A   Clear
2:35 AM 77.0 °F - 64.4 °F 65% 29.74 in 10.0 mi South 8.1 mph - N/A   Clear
2:55 AM 77.0 °F - 64.4 °F 65% 29.74 in 10.0 mi South 10.4 mph 18.4 mph N/A   Clear
3:15 AM 77.0 °F - 64.4 °F 65% 29.74 in 10.0 mi South 11.5 mph 16.1 mph N/A   Clear
3:35 AM 77.0 °F - 64.4 °F 65% 29.74 in 10.0 mi South 10.4 mph 18.4 mph N/A   Clear
3:55 AM 77.0 °F - 64.4 °F 65% 29.75 in 10.0 mi South 8.1 mph - N/A   Clear
4:15 AM 77.0 °F - 64.4 °F 65% 29.75 in 10.0 mi South 5.8 mph - N/A   Clear
4:35 AM 77.0 °F - 64.4 °F 65% 29.76 in 10.0 mi South 5.8 mph - N/A   Clear
4:55 AM 75.2 °F - 64.4 °F 69% 29.76 in 10.0 mi South 4.6 mph - N/A   Clear
5:15 AM 75.2 °F - 62.6 °F 65% 29.77 in 10.0 mi South 5.8 mph - N/A   Clear
5:35 AM 75.2 °F - 62.6 °F 65% 29.77 in 10.0 mi SE 3.5 mph - N/A   Clear
5:55 AM 73.4 °F - 62.6 °F 69% 29.78 in 10.0 mi East 4.6 mph - N/A   Scattered Clouds
6:15 AM 71.6 °F - 62.6 °F 73% 29.78 in 10.0 mi SE 3.5 mph - N/A   Scattered Clouds
6:35 AM 73.4 °F - 62.6 °F 69% 29.79 in 10.0 mi SSE 4.6 mph - N/A   Scattered Clouds
6:55 AM 73.4 °F - 64.4 °F 73% 29.80 in 10.0 mi SSE 8.1 mph - N/A   Mostly Cloudy
7:15 AM 73.4 °F - 64.4 °F 73% 29.80 in 10.0 mi South 6.9 mph - N/A   Overcast
7:35 AM 73.4 °F - 64.4 °F 73% 29.80 in 10.0 mi South 5.8 mph 16.1 mph N/A   Overcast
7:55 AM 73.4 °F - 64.4 °F 73% 29.80 in 10.0 mi SSE 5.8 mph - N/A   Overcast
8:15 AM 73.4 °F - 64.4 °F 73% 29.80 in 10.0 mi SSE 4.6 mph - N/A   Mostly Cloudy
8:35 AM 73.4 °F - 64.4 °F 73% 29.81 in 10.0 mi SSE 3.5 mph - N/A   Mostly Cloudy
8:55 AM 73.4 °F - 64.4 °F 73% 29.82 in 10.0 mi South 4.6 mph - N/A   Mostly Cloudy
9:15 AM 75.2 °F - 64.4 °F 69% 29.82 in 10.0 mi South 8.1 mph - N/A   Mostly Cloudy
9:35 AM 75.2 °F - 64.4 °F 69% 29.82 in 10.0 mi South 10.4 mph 19.6 mph N/A   Mostly Cloudy
9:55 AM 75.2 °F - 66.2 °F 73% 29.82 in 10.0 mi South 11.5 mph 16.1 mph N/A   Mostly Cloudy
10:15 AM 75.2 °F - 66.2 °F 73% 29.82 in 10.0 mi South 11.5 mph 17.3 mph N/A   Overcast
10:35 AM 75.2 °F - 66.2 °F 73% 29.81 in 10.0 mi South 11.5 mph 16.1 mph N/A   Overcast
10:55 AM 77.0 °F - 66.2 °F 69% 29.81 in 10.0 mi South 9.2 mph - N/A   Overcast
11:15 AM 77.0 °F - 66.2 °F 69% 29.81 in 10.0 mi South 10.4 mph - N/A   Overcast
11:35 AM 77.0 °F - 68.0 °F 74% 29.81 in 10.0 mi SSE 8.1 mph - N/A   Overcast
11:55 AM 77.0 °F - 68.0 °F 74% 29.80 in 10.0 mi South 6.9 mph - N/A   Overcast
12:15 PM 78.8 °F - 68.0 °F 69% 29.80 in 10.0 mi South 9.2 mph - N/A   Overcast
12:35 PM 78.8 °F - 68.0 °F 69% 29.80 in 10.0 mi South 10.4 mph - N/A   Overcast
1:15 PM 80.6 °F 83.2 °F 68.0 °F 65% 29.79 in 10.0 mi South 9.2 mph - N/A   Mostly Cloudy
1:35 PM 80.6 °F 83.2 °F 68.0 °F 65% 29.78 in 10.0 mi South 10.4 mph 19.6 mph N/A   Mostly Cloudy
1:55 PM 82.4 °F 85.4 °F 68.0 °F 62% 29.78 in 10.0 mi South 10.4 mph 18.4 mph N/A   Mostly Cloudy
2:15 PM 82.4 °F 85.4 °F 68.0 °F 62% 29.77 in 10.0 mi South 17.3 mph 25.3 mph N/A   Scattered Clouds
2:55 PM 84.2 °F 87.3 °F 68.0 °F 58% 29.77 in 10.0 mi South 13.8 mph 19.6 mph N/A   Scattered Clouds
3:15 PM 82.4 °F 85.4 °F 68.0 °F 62% 29.75 in 10.0 mi South 10.4 mph - N/A   Scattered Clouds
3:35 PM 84.2 °F 87.3 °F 68.0 °F 58% 29.74 in 10.0 mi South 10.4 mph 16.1 mph N/A   Scattered Clouds
4:15 PM 82.4 °F 85.4 °F 68.0 °F 62% 29.74 in 10.0 mi South 8.1 mph 17.3 mph N/A   Mostly Cloudy
4:35 PM 82.4 °F 85.4 °F 68.0 °F 62% 29.74 in 10.0 mi South 8.1 mph 18.4 mph N/A   Mostly Cloudy
5:15 PM 80.6 °F 83.9 °F 69.8 °F 70% 29.72 in 10.0 mi South 6.9 mph - N/A   Scattered Clouds
5:55 PM 80.6 °F 83.9 °F 69.8 °F 70% 29.74 in 10.0 mi SSW 5.8 mph - N/A   Scattered Clouds
6:15 PM 80.6 °F 83.2 °F 68.0 °F 65% 29.74 in 10.0 mi South 4.6 mph - N/A   Scattered Clouds
6:35 PM 80.6 °F 83.2 °F 68.0 °F 65% 29.72 in 10.0 mi South 6.9 mph - N/A   Scattered Clouds
6:55 PM 80.6 °F 83.2 °F 68.0 °F 65% 29.71 in 7.0 mi South 4.6 mph - N/A   Scattered Clouds
7:15 PM 78.8 °F - 66.2 °F 65% 29.72 in 7.0 mi NW 9.2 mph - N/A Thunderstorm Scattered Clouds
7:35 PM 73.4 °F - 60.8 °F 65% 29.74 in 10.0 mi West 11.5 mph 41.4 mph 0.02 in Thunderstorm Mostly Cloudy
7:55 PM 68.0 °F - 62.6 °F 83% 29.73 in 10.0 mi SSE 12.7 mph 17.3 mph 0.08 in Rain , Thunderstorm Light Thunderstorms and Rain
8:15 PM 69.8 °F - 64.4 °F 83% 29.79 in 7.0 mi SW 29.9 mph 40.3 mph 0.05 in Rain , Thunderstorm Heavy Thunderstorms and Rain
8:35 PM 68.0 °F - 60.8 °F 78% 29.71 in 4.0 mi SSE 15.0 mph 23.0 mph 0.28 in Rain , Thunderstorm Thunderstorms and Rain
8:55 PM 71.6 °F - 64.4 °F 78% 29.73 in 7.0 mi South 15.0 mph - 0.28 in Rain , Thunderstorm Light Thunderstorms and Rain
9:15 PM 69.8 °F - 62.6 °F 78% 29.80 in 10.0 mi SW 18.4 mph 25.3 mph N/A Rain , Thunderstorm Light Thunderstorms and Rain
9:35 PM 69.8 °F - 59.0 °F 68% 29.85 in 7.0 mi West 23.0 mph 51.8 mph 0.01 in Rain , Thunderstorm Thunderstorms and Rain
9:55 PM 68.0 °F - 60.8 °F 78% 29.88 in 7.0 mi SSW 18.4 mph 24.2 mph 0.05 in Rain , Thunderstorm Thunderstorms and Rain
10:15 PM 66.2 °F - 60.8 °F 83% 29.89 in 10.0 mi SSW 11.5 mph 16.1 mph 0.05 in Rain , Thunderstorm Thunderstorms and Rain
10:35 PM 64.4 °F - 62.6 °F 94% 29.78 in 7.0 mi East 19.6 mph 23.0 mph 0.10 in Rain , Thunderstorm Heavy Thunderstorms and Rain
10:55 PM 64.4 °F - 62.6 °F 94% 29.77 in 10.0 mi SE 13.8 mph 19.6 mph 0.10 in   Scattered Clouds
11:15 PM 64.4 °F - 62.6 °F 94% 29.79 in 10.0 mi ESE 6.9 mph 18.4 mph N/A   Clear
11:35 PM 64.4 °F - 62.6 °F 94% 29.79 in 10.0 mi East 8.1 mph - N/A   Clear
11:55 PM 64.4 °F - 62.6 °F 94% 29.78 in 10.0 mi East 9.2 mph - N/A   Clear